Previsão horária em Cekow

Hoje, 25 Julho, Domingo

Tempo Temperatura Precipitação Vento Pressão Humidade
00:00 +18°C° 0 mm 3 m/s 749 mmHg 70%
01:00 +18°C° 0 mm 3 m/s 749 mmHg 71%
02:00 +18°C° 0 mm 3 m/s 749 mmHg 71%
03:00 +18°C° 0 mm 3 m/s 748 mmHg 72%
04:00 +18°C° 0 mm 3 m/s 748 mmHg 72%
05:00 +19°C° 0 mm 3 m/s 748 mmHg 71%
06:00 +20°C° 0 mm 3 m/s 748 mmHg 69%
07:00 +21°C° 0 mm 3 m/s 748 mmHg 67%
08:00 +24°C° 0 mm 3 m/s 748 mmHg 62%
09:00 +25°C° 0 mm 3 m/s 748 mmHg 57%
10:00 +27°C° 0 mm 3 m/s 748 mmHg 52%
11:00 +28°C° 0 mm 4 m/s 748 mmHg 47%
12:00 +30°C° 0 mm 4 m/s 748 mmHg 41%
13:00 +32°C° 0 mm 4 m/s 748 mmHg 35%
14:00 +30°C° 0 mm 4 m/s 748 mmHg 40%
15:00 +29°C° 0 mm 4 m/s 748 mmHg 44%
16:00 +27°C° 0 mm 4 m/s 748 mmHg 49%
17:00 +26°C° 0.1 mm 3 m/s 748 mmHg 57%
18:00 +24°C° 0.1 mm 3 m/s 748 mmHg 66%
19:00 +21°C° 0.1 mm 2 m/s 748 mmHg 74%
20:00 +21°C° 0 mm 2 m/s 748 mmHg 75%
21:00 +21°C° 0 mm 3 m/s 748 mmHg 76%
22:00 +21°C° 0 mm 3 m/s 748 mmHg 78%
23:00 +20°C° 0 mm 3 m/s 748 mmHg 81%

Amanhã, 26 Julho, Segunda-feira

Tempo Temperatura Precipitação Vento Pressão Humidade
00:00 +20°C° 0 mm 2 m/s 748 mmHg 84%
01:00 +19°C° 0 mm 2 m/s 748 mmHg 87%
02:00 +19°C° 0 mm 2 m/s 748 mmHg 87%
03:00 +19°C° 0 mm 1 m/s 747 mmHg 88%
04:00 +19°C° 0 mm 1 m/s 747 mmHg 88%
05:00 +20°C° 0 mm 1 m/s 747 mmHg 82%
06:00 +22°C° 0 mm 1 m/s 747 mmHg 75%
07:00 +23°C° 0 mm 1 m/s 747 mmHg 68%
08:00 +25°C° 0 mm 1 m/s 748 mmHg 62%
09:00 +27°C° 0 mm 1 m/s 748 mmHg 56%
10:00 +29°C° 0 mm 1 m/s 748 mmHg 50%
11:00 +29°C° 0 mm 1 m/s 748 mmHg 48%
12:00 +30°C° 0 mm 1 m/s 748 mmHg 45%
13:00 +31°C° 0 mm 1 m/s 748 mmHg 42%
14:00 +31°C° 0 mm 2 m/s 747 mmHg 42%
15:00 +31°C° 0 mm 2 m/s 747 mmHg 41%
16:00 +32°C° 0 mm 2 m/s 747 mmHg 41%
17:00 +30°C° 0 mm 2 m/s 747 mmHg 46%
18:00 +29°C° 0 mm 2 m/s 747 mmHg 51%
19:00 +28°C° 0 mm 2 m/s 747 mmHg 57%
20:00 +27°C° 0 mm 2 m/s 747 mmHg 60%
21:00 +26°C° 0 mm 2 m/s 747 mmHg 63%
22:00 +24°C° 0 mm 2 m/s 748 mmHg 66%
23:00 +24°C° 0.1 mm 2 m/s 748 mmHg 71%

Depois de amanhã, 27 Julho, Terça-feira

Tempo Temperatura Precipitação Vento Pressão Humidade
00:00 +22°C° 0.1 mm 3 m/s 748 mmHg 75%
01:00 +21°C° 0.1 mm 3 m/s 748 mmHg 79%
02:00 +20°C° 0 mm 3 m/s 748 mmHg 83%
03:00 +20°C° 0 mm 3 m/s 748 mmHg 86%
04:00 +19°C° 0 mm 3 m/s 748 mmHg 90%
05:00 +20°C° 0 mm 3 m/s 748 mmHg 85%
06:00 +21°C° 0 mm 3 m/s 748 mmHg 81%
07:00 +24°C° 0 mm 3 m/s 749 mmHg 76%
08:00 +25°C° 0 mm 3 m/s 749 mmHg 70%
09:00 +27°C° 0 mm 3 m/s 749 mmHg 64%
10:00 +28°C° 0 mm 3 m/s 749 mmHg 57%
11:00 +29°C° 0 mm 3 m/s 749 mmHg 53%
12:00 +30°C° 0 mm 3 m/s 749 mmHg 49%
13:00 +31°C° 0 mm 3 m/s 749 mmHg 45%
14:00 +31°C° 0 mm 3 m/s 749 mmHg 44%
15:00 +31°C° 0 mm 3 m/s 749 mmHg 43%
16:00 +31°C° 0 mm 3 m/s 749 mmHg 42%
17:00 +29°C° 0 mm 3 m/s 748 mmHg 47%
18:00 +28°C° 0 mm 3 m/s 748 mmHg 52%
19:00 +27°C° 0 mm 2 m/s 748 mmHg 57%
20:00 +26°C° 0 mm 2 m/s 748 mmHg 58%
21:00 +25°C° 0 mm 2 m/s 748 mmHg 59%
22:00 +25°C° 0 mm 2 m/s 749 mmHg 60%
23:00 +24°C° 0 mm 2 m/s 749 mmHg 64%

28 Julho, Quarta-feira

Tempo Temperatura Precipitação Vento Pressão Humidade
00:00 +23°C° 0 mm 2 m/s 748 mmHg 67%
01:00 +21°C° 0 mm 2 m/s 748 mmHg 71%
02:00 +21°C° 0 mm 2 m/s 748 mmHg 72%
03:00 +20°C° 0 mm 2 m/s 748 mmHg 73%
04:00 +20°C° 0 mm 2 m/s 748 mmHg 73%
05:00 +21°C° 0 mm 3 m/s 748 mmHg 71%
06:00 +22°C° 0 mm 3 m/s 748 mmHg 68%
07:00 +22°C° 0 mm 4 m/s 749 mmHg 66%
08:00 +23°C° 0 mm 4 m/s 749 mmHg 63%
09:00 +25°C° 0 mm 5 m/s 749 mmHg 61%
10:00 +25°C° 0 mm 5 m/s 749 mmHg 58%
11:00 +25°C° 0 mm 5 m/s 749 mmHg 61%
12:00 +23°C° 0 mm 4 m/s 750 mmHg 64%
13:00 +22°C° 0 mm 4 m/s 750 mmHg 67%
14:00 +23°C° 0 mm 4 m/s 750 mmHg 64%
15:00 +23°C° 0 mm 4 m/s 750 mmHg 60%
16:00 +25°C° 0 mm 4 m/s 750 mmHg 57%
17:00 +25°C° 0 mm 4 m/s 749 mmHg 60%
18:00 +24°C° 0 mm 3 m/s 749 mmHg 62%
19:00 +24°C° 0 mm 3 m/s 749 mmHg 65%
20:00 +22°C° 0 mm 3 m/s 749 mmHg 66%
21:00 +21°C° 0 mm 3 m/s 749 mmHg 68%
22:00 +21°C° 0 mm 3 m/s 749 mmHg 69%
23:00 +20°C° 0 mm 3 m/s 749 mmHg 71%

29 Julho, Quinta-feira

Tempo Temperatura Precipitação Vento Pressão Humidade
00:00 +20°C° 0 mm 3 m/s 749 mmHg 72%
01:00 +19°C° 0 mm 3 m/s 749 mmHg 73%
02:00 +19°C° 0 mm 3 m/s 749 mmHg 74%
03:00 +18°C° 0 mm 3 m/s 750 mmHg 75%
04:00 +18°C° 0 mm 3 m/s 750 mmHg 76%
05:00 +19°C° 0 mm 3 m/s 750 mmHg 73%
06:00 +20°C° 0 mm 3 m/s 750 mmHg 69%
07:00 +22°C° 0 mm 3 m/s 750 mmHg 65%
08:00 +24°C° 0 mm 3 m/s 750 mmHg 60%
09:00 +26°C° 0 mm 3 m/s 750 mmHg 54%
10:00 +27°C° 0 mm 3 m/s 750 mmHg 48%
11:00 +28°C° 0 mm 3 m/s 750 mmHg 44%
12:00 +29°C° 0 mm 3 m/s 750 mmHg 40%
13:00 +30°C° 0 mm 4 m/s 749 mmHg 36%
14:00 +30°C° 0 mm 4 m/s 749 mmHg 36%
15:00 +30°C° 0 mm 3 m/s 749 mmHg 37%
16:00 +30°C° 0 mm 3 m/s 749 mmHg 38%
17:00 +28°C° 0 mm 2 m/s 748 mmHg 43%
18:00 +27°C° 0 mm 2 m/s 748 mmHg 48%
19:00 +26°C° 0 mm 1 m/s 748 mmHg 53%
20:00 +25°C° 0 mm 2 m/s 748 mmHg 55%
21:00 +24°C° 0 mm 2 m/s 748 mmHg 56%
22:00 +22°C° 0 mm 3 m/s 748 mmHg 57%
23:00 +22°C° 0 mm 3 m/s 748 mmHg 58%

30 Julho, Sexta-feira

Tempo Temperatura Precipitação Vento Pressão Humidade
00:00 +21°C° 0 mm 3 m/s 748 mmHg 59%
01:00 +21°C° 0 mm 2 m/s 747 mmHg 60%
02:00 +23°C° 0 mm 2 m/s 747 mmHg 58%
03:00 +23°C° 0 mm 2 m/s 747 mmHg 56%
04:00 +24°C° 0 mm 2 m/s 747 mmHg 54%
05:00 +24°C° 0.1 mm 3 m/s 747 mmHg 56%
06:00 +25°C° 0.1 mm 4 m/s 747 mmHg 57%
07:00 +25°C° 0.1 mm 4 m/s 747 mmHg 59%
08:00 +25°C° 0.3 mm 3 m/s 747 mmHg 64%
09:00 +25°C° 0.3 mm 3 m/s 747 mmHg 69%
10:00 +25°C° 0.3 mm 2 m/s 748 mmHg 74%
11:00 +27°C° 0 mm 3 m/s 747 mmHg 65%
12:00 +28°C° 0 mm 4 m/s 747 mmHg 56%
13:00 +30°C° 0 mm 5 m/s 747 mmHg 48%
14:00 +29°C° 0.1 mm 4 m/s 747 mmHg 51%
15:00 +29°C° 0.1 mm 4 m/s 747 mmHg 54%
16:00 +28°C° 0.1 mm 4 m/s 747 mmHg 57%
17:00 +28°C° 0 mm 3 m/s 747 mmHg 59%
18:00 +27°C° 0 mm 2 m/s 747 mmHg 60%
19:00 +26°C° 0 mm 1 m/s 747 mmHg 62%
20:00 +25°C° 0 mm 1 m/s 747 mmHg 65%
21:00 +24°C° 0 mm 2 m/s 747 mmHg 69%
22:00 +23°C° 0 mm 2 m/s 747 mmHg 72%
23:00 +21°C° 0.1 mm 2 m/s 748 mmHg 74%
Mostrar mais

Necessitamos do seu Consentimento

A Meteoprog e os seus Fornecedores de Serviços podem armazenar e aceder a dados pessoais como cookies, identificadores do dispositivo ou outras tecnologias semelhantes existentes no seu dispositivo e processar estes dados para personalizar conteúdos e anúncios, assim como funcionalidades nas redes sociais e análise de tráfego.

  • Armazenar e/ou aceder a informações no seu dispositivo

    Os cookies, identificadores do dispositivo ou outras informações podem ser armazenados ou acedidos no seu dispositivo, para os fins acima indicados.

  • Anúncios e conteúdos personalizados, medição de anúncios e conteúdos, dados sobre o público-alvo e desenvolvimento de produtos

    Os anúncios e os conteúdos podem ser personalizados com base num perfil. Podem ser adicionados dados adicionais para uma maior personalização dos anúncios e dos conteúdos. A eficácia dos anúncios e dos conteúdos pode ser medida. Podem ser obtidas informações sobre o público que visualizou os anúncios e os conteúdos. Estes dados podem ser usados para desenvolver ou melhorar sistemas, softwares ou a experiência do utilizador.

Ao clicar em "Eu concordo”, permitirá o uso de cookies, identificadores do dispositivo e web beacons mencionados ou outras tecnologias semelhantes. As configurações do navegador do seu dispositivo podem ser alteradas.

Para certos fins, podem ser invocados interesses legítimos ao invés de consentimento. Pode ler mais informação sobre este assunto na nossa Política de Privacidade e Cookies.